Tracking 18784 objects as of 18-August-2017
HD Live streaming from Space Station
objects crossing your sky now

CP4

Track CP4 now!
10-day predictions
CP4 is classified as:


NORAD ID: 31132
Int'l Code: 2007-012Q
Perigee: 647.6 km
Apogee: 760.5 km
Inclination: 98.0 °
Period: 98.7 minutes
Semi major axis: 7075 km
RCS: 0.0337 m2 (small)
Launch date: April 17, 2007
Source: United States (US)
Launch site: TYURATAM MISSILE AND SPACE COMPLEX (TTMTR)
Uplink (MHz):
Downlink (MHz): 437.325
Beacon (MHz): 437.325
Mode: 1200bps SSB CW
Call sign: N6CP
Status: Inactive

Your satellite tracking list
Your tracking list is empty





NASA's NSSDC Master Catalog

Two Line Element Set (TLE):
1 31132U 07012Q   17229.82497529 +.00000100 +00000-0 +30584-4 0  9992
2 31132 098.0349 183.6354 0079779 307.2621 052.1321 14.58853516549441
Source of the keplerian elements: Caltech